GFSSE_prec_pwat_132.txt.gz
Precipitable_Water
1.81 2.01 2.12 2.16 2.13 2.14 2.13 2.09 2.06 2.01 2.07 2.11 2.04 2.07 1.96 1.88 1.89 1.99 1.97 1.92 1.90 1.92 1.90 1.63 1.50 1.64 1.79 1.85 1.81 1.74 1.70 1.67 1.64 1.62 1.64 1.69 1.81 1.83 1.80 1.73 1.74 1.77 1.73
1.79 1.88 2.08 2.07 2.03 2.00 2.01 2.03 2.10 2.09 2.12 2.05 2.02 1.83 1.81 1.96 1.99 2.03 1.97 1.80 1.84 1.80 1.71 1.77 1.84 1.99 2.02 1.89 1.76 1.71 1.66 1.61 1.61 1.60 1.67 1.72 1.75 1.69 1.59 1.67 1.61 1.65 1.64
1.75 1.80 1.80 1.85 1.91 1.96 1.96 1.99 2.01 2.11 2.07 2.09 1.97 2.01 2.04 2.01 2.03 2.00 1.88 1.90 1.98 1.98 1.95 1.90 2.02 2.05 1.96 1.82 1.75 1.75 1.70 1.65 1.54 1.53 1.55 1.56 1.53 1.45 1.42 1.53 1.52 1.55 1.59
1.71 1.78 1.78 1.79 1.86 1.91 1.89 1.89 1.96 2.09 2.06 1.99 1.98 2.04 2.03 1.99 1.99 2.01 2.09 2.11 2.11 2.09 2.10 2.06 2.02 1.90 1.83 1.82 1.85 1.81 1.83 1.69 1.51 1.43 1.23 1.24 1.28 1.30 1.28 1.30 1.32 1.33 1.35
1.69 1.78 1.83 1.84 1.86 1.89 1.93 2.01 1.95 2.01 2.02 1.92 2.01 1.99 1.94 1.95 1.98 2.07 2.09 2.13 2.21 2.17 2.07 1.96 1.81 1.79 1.83 1.79 1.81 1.79 1.77 1.48 1.41 1.39 1.30 1.35 1.38 1.40 1.43 1.40 1.34 1.27 1.26
1.65 1.72 1.81 1.78 1.86 1.88 1.95 2.00 2.05 1.99 1.93 1.98 2.04 2.07 2.02 1.96 1.94 1.96 1.96 1.97 1.94 1.88 1.76 1.68 1.63 1.70 1.68 1.72 1.78 1.67 1.55 1.48 1.44 1.39 1.32 1.39 1.42 1.49 1.38 1.35 1.27 1.30 1.37
1.56 1.69 1.74 1.69 1.83 1.92 1.94 2.01 2.03 1.99 1.90 1.93 2.04 2.13 2.10 2.01 2.04 2.02 1.91 1.89 1.83 1.65 1.50 1.51 1.51 1.53 1.53 1.65 1.61 1.46 1.53 1.50 1.44 1.42 1.41 1.34 1.40 1.40 1.45 1.51 1.54 1.48 1.51
1.53 1.66 1.77 1.74 1.78 1.82 1.95 2.03 1.97 1.81 1.69 1.90 2.01 2.13 2.13 2.10 2.07 1.97 1.83 1.58 1.42 1.31 1.36 1.38 1.37 1.41 1.51 1.49 1.46 1.52 1.53 1.54 1.50 1.41 1.36 1.37 1.52 1.50 1.38 1.37 1.40 1.47 1.54
1.61 1.67 1.73 1.78 1.87 1.93 2.01 2.04 1.92 1.80 1.79 1.77 1.87 2.03 1.98 1.95 1.92 1.86 1.75 1.53 1.27 1.21 1.18 1.19 1.25 1.41 1.48 1.46 1.53 1.57 1.57 1.61 1.57 1.50 1.36 1.34 1.45 1.52 1.47 1.40 1.41 1.45 1.48
1.56 1.61 1.71 1.75 1.82 1.88 1.91 1.85 1.77 1.71 1.66 1.73 1.74 1.73 1.88 1.94 1.98 1.86 1.66 1.41 1.30 1.23 1.13 1.08 1.19 1.28 1.41 1.46 1.49 1.49 1.55 1.62 1.58 1.50 1.33 1.27 1.31 1.38 1.40 1.44 1.47 1.47 1.47
1.50 1.56 1.73 1.71 1.75 1.81 1.84 1.80 1.78 1.75 1.70 1.71 1.69 1.63 1.79 1.81 1.81 1.74 1.48 1.39 1.44 1.39 1.39 1.38 1.29 1.28 1.35 1.42 1.48 1.53 1.53 1.50 1.46 1.40 1.23 1.29 1.34 1.42 1.47 1.51 1.54 1.59 1.65
1.67 1.57 1.71 1.69 1.71 1.77 1.74 1.72 1.76 1.75 1.70 1.66 1.60 1.58 1.62 1.72 1.70 1.57 1.46 1.47 1.54 1.57 1.67 1.68 1.55 1.44 1.41 1.39 1.39 1.45 1.50 1.50 1.39 1.31 1.30 1.35 1.43 1.50 1.53 1.55 1.61 1.69 1.77
1.68 1.71 1.71 1.82 1.79 1.72 1.64 1.67 1.78 1.79 1.81 1.78 1.70 1.62 1.59 1.63 1.61 1.49 1.53 1.50 1.45 1.55 1.63 1.63 1.62 1.64 1.63 1.63 1.56 1.59 1.51 1.41 1.37 1.26 1.32 1.37 1.45 1.51 1.58 1.64 1.69 1.76 1.81
1.63 1.77 1.75 1.94 1.83 1.75 1.73 1.79 1.81 1.84 1.82 1.79 1.71 1.58 1.53 1.56 1.54 1.45 1.46 1.50 1.51 1.58 1.53 1.55 1.61 1.62 1.63 1.65 1.60 1.50 1.48 1.33 1.30 1.24 1.32 1.36 1.44 1.54 1.63 1.68 1.71 1.77 1.85
1.55 1.66 1.68 1.78 1.81 1.82 1.77 1.88 1.84 1.71 1.73 1.68 1.70 1.65 1.57 1.58 1.48 1.48 1.48 1.58 1.57 1.58 1.56 1.56 1.58 1.59 1.58 1.49 1.42 1.41 1.38 1.30 1.26 1.19 1.28 1.36 1.44 1.55 1.63 1.69 1.75 1.83 1.90
1.51 1.53 1.66 1.72 1.84 1.93 1.89 1.69 1.73 1.71 1.72 1.70 1.62 1.64 1.55 1.51 1.52 1.53 1.52 1.54 1.57 1.53 1.53 1.55 1.54 1.55 1.53 1.31 1.24 1.22 1.27 1.29 1.25 1.24 1.31 1.40 1.46 1.55 1.62 1.73 1.87 1.96 1.99
1.45 1.58 1.62 1.64 1.78 1.73 1.79 1.69 1.76 1.73 1.71 1.70 1.75 1.76 1.63 1.53 1.58 1.60 1.49 1.47 1.52 1.54 1.50 1.56 1.56 1.56 1.41 1.17 1.08 1.12 1.20 1.24 1.25 1.29 1.39 1.50 1.66 1.70 1.74 1.73 1.89 2.03 2.12
1.50 1.55 1.57 1.57 1.68 1.60 1.60 1.77 1.77 1.69 1.71 1.72 1.84 1.75 1.60 1.56 1.62 1.59 1.58 1.43 1.50 1.52 1.51 1.57 1.56 1.47 1.33 1.32 1.23 1.16 1.21 1.22 1.22 1.39 1.44 1.51 1.59 1.65 1.72 1.75 1.80 1.93 2.08
1.50 1.54 1.53 1.57 1.59 1.66 1.65 1.64 1.75 1.71 1.80 1.82 1.88 1.71 1.67 1.57 1.68 1.63 1.53 1.52 1.49 1.42 1.47 1.51 1.55 1.48 1.34 1.33 1.36 1.40 1.34 1.37 1.39 1.39 1.51 1.58 1.60 1.66 1.71 1.77 1.76 1.81 1.87
1.51 1.54 1.58 1.63 1.61 1.60 1.68 1.82 1.80 1.77 1.77 1.82 1.81 1.60 1.62 1.57 1.63 1.64 1.53 1.47 1.47 1.45 1.48 1.55 1.49 1.52 1.43 1.35 1.30 1.38 1.44 1.44 1.53 1.47 1.56 1.69 1.79 1.82 1.81 1.73 1.62 1.52 1.73
1.47 1.50 1.53 1.59 1.63 1.64 1.64 1.70 1.73 1.71 1.71 1.74 1.66 1.57 1.59 1.56 1.67 1.78 1.56 1.32 1.40 1.40 1.41 1.51 1.51 1.41 1.36 1.49 1.33 1.35 1.35 1.45 1.49 1.54 1.66 1.65 1.71 1.78 1.70 1.61 1.69 1.64 1.63
1.34 1.41 1.47 1.51 1.57 1.54 1.62 1.60 1.73 1.65 1.68 1.77 1.71 1.71 1.67 1.60 1.60 1.70 1.69 1.38 1.24 1.36 1.29 1.41 1.44 1.37 1.40 1.53 1.40 1.34 1.27 1.48 1.56 1.62 1.65 1.70 1.72 1.75 1.75 1.72 1.75 1.69 1.69
1.41 1.36 1.39 1.47 1.50 1.57 1.63 1.65 1.68 1.73 1.75 1.76 1.79 1.70 1.67 1.59 1.62 1.72 1.78 1.60 1.25 1.40 1.46 1.55 1.43 1.43 1.43 1.48 1.60 1.46 1.22 1.07 1.37 1.65 1.63 1.56 1.64 1.63 1.78 1.82 1.64 1.75 1.78
1.42 1.44 1.43 1.47 1.43 1.53 1.69 1.59 1.58 1.57 1.46 1.53 1.59 1.59 1.55 1.63 1.65 1.81 1.73 1.67 1.57 1.54 1.61 1.64 1.59 1.53 1.50 1.39 1.53 1.55 1.57 1.52 1.33 1.31 1.46 1.62 1.59 1.60 1.66 1.80 1.88 1.89 1.94
1.47 1.44 1.42 1.39 1.45 1.57 1.57 1.63 1.76 1.54 1.64 1.67 1.60 1.49 1.53 1.62 1.64 1.68 1.76 1.71 1.75 1.60 1.71 1.72 1.67 1.59 1.68 1.69 1.49 1.41 1.40 1.45 1.55 1.43 1.20 1.27 1.54 1.57 1.64 1.66 1.76 1.82 1.83
1.51 1.51 1.45 1.39 1.32 1.48 1.54 1.51 1.63 1.58 1.66 1.58 1.46 1.42 1.48 1.51 1.55 1.59 1.68 1.70 1.61 1.79 1.65 1.73 1.72 1.67 1.67 1.62 1.55 1.54 1.48 1.36 1.43 1.33 1.19 1.20 1.22 1.31 1.45 1.61 1.53 1.61 1.71

GFSSE_prec_pwat_135.txt.gz
Precipitable_Water
1.77 1.97 2.19 2.24 2.19 2.16 2.08 1.94 1.96 2.04 2.15 2.13 2.10 2.15 2.21 2.18 2.02 2.00 1.92 1.93 1.97 1.95 1.92 1.79 1.64 1.72 1.84 1.83 1.79 1.73 1.70 1.67 1.67 1.71 1.74 1.80 1.84 1.81 1.75 1.74 1.76 1.75 1.78
1.83 1.99 2.18 2.20 2.21 2.18 2.14 2.03 1.99 2.07 2.13 2.16 2.10 2.07 1.93 1.86 1.94 1.96 1.93 1.87 1.94 1.92 1.79 1.68 1.80 1.96 1.97 1.84 1.75 1.69 1.68 1.67 1.73 1.71 1.74 1.78 1.73 1.70 1.70 1.66 1.69 1.72 1.70
1.77 1.94 2.12 2.11 2.14 2.09 2.13 2.11 2.08 2.09 2.09 2.12 2.02 1.86 1.92 1.97 2.06 1.89 1.78 1.86 1.90 1.86 1.86 1.94 2.10 2.02 1.84 1.75 1.72 1.65 1.64 1.60 1.62 1.67 1.70 1.59 1.53 1.52 1.56 1.54 1.56 1.59 1.60
1.73 1.88 1.93 2.02 2.04 2.06 2.05 2.11 2.12 2.13 2.17 2.09 2.05 2.01 2.02 2.04 1.94 1.87 2.02 2.08 2.02 1.98 1.98 2.10 2.02 1.89 1.87 1.84 1.81 1.82 1.70 1.47 1.34 1.35 1.38 1.39 1.37 1.36 1.41 1.41 1.45 1.48 1.49
1.71 1.82 1.82 1.90 2.01 1.94 1.95 2.00 2.09 2.18 2.11 2.08 2.11 2.00 2.00 1.96 2.01 2.16 2.16 2.11 2.15 2.10 2.07 1.98 1.85 1.82 1.83 1.82 1.80 1.70 1.55 1.46 1.43 1.34 1.30 1.32 1.33 1.36 1.32 1.27 1.26 1.30 1.33
1.72 1.82 1.87 1.89 1.91 1.93 1.96 1.97 2.05 2.13 2.12 2.09 2.02 1.96 1.92 2.01 2.12 2.13 2.17 2.23 2.16 2.03 1.89 1.76 1.79 1.79 1.80 1.77 1.78 1.58 1.49 1.45 1.46 1.34 1.34 1.43 1.47 1.46 1.43 1.48 1.35 1.46 1.56
1.66 1.78 1.92 1.96 1.93 1.96 1.94 1.99 1.99 2.05 2.07 2.01 2.03 1.98 2.01 2.02 1.99 2.00 1.98 1.95 1.90 1.72 1.65 1.66 1.67 1.66 1.72 1.63 1.54 1.53 1.48 1.49 1.42 1.41 1.43 1.44 1.50 1.53 1.54 1.66 1.51 1.50 1.51
1.49 1.64 1.77 1.88 1.90 1.93 1.95 1.94 1.98 1.91 1.91 2.00 2.07 2.04 2.04 2.09 2.10 1.98 1.95 1.84 1.58 1.52 1.53 1.49 1.49 1.52 1.54 1.49 1.52 1.48 1.53 1.54 1.50 1.43 1.40 1.42 1.49 1.43 1.39 1.45 1.51 1.60 1.69
1.65 1.68 1.69 1.83 1.89 1.85 1.93 1.90 1.77 1.71 1.90 2.04 2.16 2.18 2.17 2.11 1.91 1.74 1.57 1.42 1.33 1.31 1.31 1.34 1.42 1.49 1.47 1.50 1.51 1.51 1.62 1.63 1.56 1.49 1.38 1.42 1.51 1.54 1.52 1.47 1.47 1.54 1.57
1.60 1.68 1.69 1.78 1.89 2.00 2.01 1.98 1.86 1.87 1.88 1.98 2.10 2.01 1.99 1.97 1.84 1.76 1.58 1.44 1.31 1.24 1.21 1.24 1.37 1.44 1.49 1.54 1.53 1.52 1.56 1.63 1.56 1.50 1.42 1.40 1.43 1.45 1.43 1.46 1.52 1.58 1.63
1.51 1.64 1.70 1.72 1.84 1.90 1.86 1.83 1.73 1.67 1.72 1.81 1.83 1.86 1.96 1.96 1.81 1.68 1.46 1.38 1.31 1.26 1.26 1.30 1.35 1.42 1.45 1.47 1.52 1.56 1.55 1.55 1.53 1.46 1.35 1.36 1.39 1.46 1.51 1.58 1.64 1.71 1.77
1.42 1.59 1.65 1.74 1.76 1.87 1.78 1.80 1.69 1.66 1.69 1.69 1.69 1.74 1.86 1.88 1.71 1.49 1.55 1.62 1.62 1.65 1.59 1.45 1.38 1.40 1.43 1.47 1.50 1.48 1.45 1.45 1.45 1.41 1.31 1.42 1.50 1.59 1.63 1.67 1.74 1.79 1.85
1.53 1.60 1.66 1.69 1.75 1.75 1.66 1.71 1.68 1.63 1.60 1.59 1.61 1.64 1.74 1.73 1.60 1.56 1.58 1.61 1.60 1.66 1.60 1.56 1.56 1.57 1.58 1.55 1.53 1.52 1.53 1.48 1.43 1.41 1.34 1.48 1.57 1.61 1.65 1.71 1.76 1.79 1.89
1.52 1.56 1.70 1.73 1.69 1.67 1.61 1.65 1.63 1.70 1.72 1.66 1.62 1.61 1.65 1.56 1.52 1.54 1.43 1.45 1.47 1.55 1.50 1.52 1.51 1.55 1.58 1.59 1.51 1.42 1.46 1.42 1.32 1.30 1.35 1.47 1.56 1.64 1.69 1.73 1.78 1.83 2.01
1.56 1.63 1.71 1.82 1.70 1.67 1.69 1.75 1.79 1.76 1.74 1.66 1.54 1.57 1.63 1.55 1.57 1.56 1.47 1.45 1.51 1.56 1.52 1.50 1.51 1.48 1.45 1.39 1.32 1.35 1.33 1.33 1.21 1.25 1.35 1.49 1.55 1.63 1.69 1.73 1.81 1.90 1.98
1.55 1.63 1.71 1.73 1.75 1.76 1.75 1.80 1.73 1.73 1.70 1.70 1.64 1.58 1.60 1.62 1.49 1.52 1.51 1.46 1.50 1.56 1.56 1.51 1.47 1.43 1.38 1.25 1.15 1.23 1.26 1.23 1.27 1.31 1.41 1.50 1.60 1.63 1.65 1.73 1.84 1.90 1.96
1.47 1.59 1.62 1.71 1.82 1.83 1.67 1.74 1.74 1.70 1.71 1.64 1.65 1.62 1.56 1.56 1.55 1.50 1.54 1.56 1.53 1.53 1.50 1.49 1.45 1.42 1.32 1.14 1.06 1.08 1.17 1.21 1.25 1.30 1.39 1.47 1.59 1.64 1.69 1.74 1.77 1.83 1.97
1.45 1.50 1.61 1.68 1.72 1.77 1.72 1.68 1.71 1.68 1.65 1.71 1.72 1.66 1.56 1.58 1.59 1.55 1.50 1.51 1.51 1.45 1.46 1.46 1.45 1.36 1.31 1.19 1.15 1.25 1.24 1.21 1.28 1.37 1.40 1.43 1.51 1.59 1.69 1.73 1.73 1.72 1.68
1.44 1.46 1.52 1.59 1.64 1.63 1.63 1.69 1.73 1.68 1.67 1.77 1.80 1.78 1.60 1.55 1.56 1.59 1.54 1.45 1.49 1.39 1.45 1.47 1.40 1.37 1.25 1.23 1.24 1.29 1.28 1.31 1.38 1.45 1.53 1.63 1.66 1.73 1.83 1.89 1.84 1.82 1.63
1.46 1.50 1.52 1.53 1.55 1.65 1.56 1.62 1.67 1.65 1.73 1.83 1.86 1.75 1.73 1.62 1.57 1.59 1.54 1.48 1.46 1.36 1.40 1.45 1.37 1.41 1.37 1.27 1.27 1.27 1.29 1.32 1.41 1.42 1.47 1.62 1.69 1.74 1.77 1.79 1.72 1.80 1.76
1.48 1.48 1.49 1.45 1.54 1.60 1.62 1.55 1.61 1.51 1.66 1.77 1.83 1.72 1.67 1.65 1.58 1.63 1.49 1.47 1.40 1.33 1.38 1.48 1.35 1.30 1.35 1.45 1.24 1.21 1.33 1.42 1.42 1.51 1.55 1.60 1.69 1.73 1.74 1.74 1.78 1.84 1.77
1.39 1.46 1.46 1.46 1.52 1.55 1.63 1.67 1.67 1.71 1.68 1.71 1.70 1.68 1.60 1.58 1.55 1.72 1.56 1.40 1.34 1.35 1.41 1.45 1.42 1.24 1.38 1.49 1.31 1.40 1.17 1.38 1.49 1.59 1.71 1.73 1.63 1.56 1.64 1.76 1.76 1.75 1.78
1.42 1.40 1.44 1.46 1.55 1.57 1.59 1.61 1.67 1.71 1.70 1.65 1.58 1.62 1.64 1.57 1.58 1.72 1.71 1.51 1.33 1.41 1.46 1.42 1.41 1.38 1.27 1.43 1.54 1.41 1.22 1.13 1.23 1.53 1.56 1.58 1.55 1.56 1.61 1.67 1.80 1.74 1.79
1.43 1.45 1.47 1.51 1.51 1.56 1.60 1.52 1.46 1.50 1.46 1.54 1.69 1.69 1.72 1.64 1.57 1.69 1.84 1.70 1.45 1.44 1.57 1.56 1.49 1.49 1.50 1.37 1.47 1.54 1.54 1.38 1.23 1.18 1.43 1.47 1.54 1.54 1.56 1.62 1.70 1.70 1.73
1.54 1.43 1.46 1.54 1.50 1.50 1.50 1.52 1.51 1.54 1.56 1.63 1.70 1.68 1.60 1.61 1.65 1.66 1.80 1.74 1.62 1.50 1.56 1.67 1.61 1.64 1.60 1.54 1.40 1.43 1.38 1.42 1.43 1.24 1.14 1.24 1.32 1.42 1.42 1.47 1.56 1.58 1.65
1.60 1.50 1.48 1.48 1.47 1.48 1.49 1.56 1.52 1.54 1.54 1.60 1.56 1.49 1.49 1.50 1.57 1.60 1.85 1.77 1.81 1.66 1.74 1.77 1.78 1.70 1.67 1.64 1.60 1.51 1.38 1.32 1.24 1.22 1.14 1.13 1.13 1.25 1.29 1.40 1.46 1.52 1.72

GFSSE_prec_pwat_138.txt.gz
Precipitable_Water
1.75 2.00 2.16 2.19 2.09 2.08 2.06 2.08 2.14 2.18 2.08 2.08 2.14 2.20 2.20 2.22 2.27 2.16 2.00 1.97 1.96 1.98 1.96 1.85 1.84 1.85 1.86 1.84 1.77 1.69 1.69 1.67 1.68 1.70 1.80 1.81 1.80 1.78 1.73 1.77 1.75 1.81 1.80
1.82 2.01 2.18 2.25 2.13 2.13 2.08 2.05 2.12 2.19 2.17 2.19 2.17 2.19 2.20 2.14 2.06 1.90 1.91 1.96 1.97 1.95 1.76 1.66 1.90 2.03 1.88 1.77 1.70 1.72 1.71 1.72 1.69 1.78 1.77 1.69 1.69 1.70 1.66 1.69 1.75 1.72 1.73
1.82 2.01 2.24 2.26 2.21 2.18 2.07 2.03 2.10 2.14 2.19 2.16 2.12 2.04 1.89 1.93 1.98 1.92 1.87 1.90 1.86 1.86 1.81 2.08 2.13 1.91 1.80 1.68 1.66 1.65 1.63 1.61 1.64 1.65 1.56 1.49 1.52 1.56 1.56 1.63 1.62 1.65 1.67
1.81 1.99 2.11 2.18 2.23 2.18 2.11 2.08 2.08 2.10 2.15 2.12 1.97 1.91 2.00 2.04 1.88 1.82 1.85 1.91 1.94 1.92 2.08 2.12 1.98 1.84 1.83 1.80 1.81 1.64 1.39 1.35 1.39 1.38 1.32 1.29 1.33 1.43 1.45 1.45 1.48 1.50 1.51
1.79 1.92 1.99 2.09 2.09 2.12 2.14 2.10 2.11 2.17 2.13 2.07 2.06 2.10 2.08 1.95 1.97 2.09 2.11 2.10 2.11 2.05 2.16 1.94 1.87 1.87 1.86 1.80 1.69 1.55 1.41 1.36 1.23 1.15 1.14 1.17 1.18 1.20 1.20 1.23 1.29 1.34 1.39
1.74 1.82 1.91 2.03 2.07 2.03 2.03 2.05 2.06 2.16 2.13 2.14 2.06 2.06 1.98 2.10 2.16 2.17 2.15 2.18 2.15 2.09 1.93 1.80 1.80 1.86 1.83 1.76 1.51 1.46 1.39 1.40 1.32 1.27 1.31 1.36 1.41 1.45 1.50 1.36 1.34 1.47 1.40
1.72 1.85 1.89 1.94 1.96 2.00 2.00 2.05 2.08 2.13 2.08 2.14 2.04 2.05 2.08 2.12 2.12 2.19 2.22 2.13 2.01 1.88 1.71 1.76 1.81 1.79 1.66 1.64 1.51 1.45 1.48 1.42 1.36 1.38 1.43 1.49 1.54 1.51 1.50 1.50 1.43 1.51 1.52
1.69 1.89 1.95 1.97 1.93 1.95 2.02 2.05 2.12 2.11 2.12 2.15 2.04 1.96 2.05 2.05 2.02 1.98 1.99 1.91 1.61 1.58 1.61 1.59 1.62 1.65 1.50 1.48 1.45 1.48 1.54 1.53 1.50 1.42 1.43 1.49 1.52 1.48 1.54 1.57 1.51 1.59 1.70
1.61 1.78 1.88 1.94 1.97 1.91 1.94 2.03 2.04 2.07 2.09 2.12 2.04 2.07 2.12 2.06 1.96 1.75 1.51 1.40 1.41 1.44 1.42 1.45 1.48 1.43 1.44 1.45 1.48 1.59 1.67 1.64 1.55 1.49 1.39 1.49 1.56 1.51 1.46 1.46 1.54 1.64 1.68
1.59 1.62 1.72 1.90 1.93 1.90 1.92 1.86 1.81 1.88 2.06 2.13 2.09 2.13 2.02 1.81 1.70 1.63 1.48 1.41 1.31 1.24 1.30 1.39 1.43 1.46 1.48 1.50 1.54 1.58 1.60 1.63 1.56 1.54 1.50 1.50 1.57 1.59 1.56 1.57 1.62 1.65 1.68
1.51 1.64 1.65 1.73 1.89 1.98 1.95 1.92 1.86 1.92 2.03 2.10 1.99 2.00 1.96 1.77 1.64 1.49 1.44 1.31 1.28 1.25 1.30 1.38 1.44 1.46 1.46 1.47 1.53 1.55 1.51 1.55 1.55 1.53 1.47 1.46 1.53 1.58 1.63 1.69 1.73 1.79 1.87
1.39 1.54 1.71 1.75 1.78 1.82 1.85 1.88 1.80 1.77 1.86 1.87 1.83 1.87 1.89 1.70 1.58 1.45 1.41 1.42 1.37 1.38 1.36 1.36 1.38 1.40 1.44 1.44 1.45 1.42 1.39 1.46 1.46 1.45 1.43 1.45 1.54 1.62 1.68 1.73 1.80 1.93 1.96
1.43 1.55 1.63 1.71 1.81 1.73 1.64 1.67 1.58 1.66 1.68 1.68 1.72 1.80 1.85 1.64 1.63 1.58 1.57 1.57 1.58 1.58 1.46 1.48 1.45 1.48 1.48 1.47 1.43 1.38 1.43 1.45 1.40 1.41 1.41 1.46 1.56 1.66 1.72 1.80 1.88 1.94 1.82
1.44 1.55 1.66 1.72 1.72 1.71 1.65 1.63 1.57 1.52 1.54 1.56 1.63 1.73 1.67 1.57 1.57 1.56 1.48 1.45 1.53 1.53 1.42 1.47 1.52 1.55 1.55 1.54 1.40 1.33 1.36 1.34 1.31 1.34 1.37 1.50 1.61 1.69 1.74 1.81 1.89 1.93 2.02
1.39 1.54 1.65 1.73 1.70 1.67 1.59 1.61 1.57 1.63 1.61 1.57 1.61 1.71 1.62 1.51 1.51 1.51 1.46 1.43 1.46 1.49 1.49 1.49 1.50 1.50 1.47 1.37 1.29 1.29 1.25 1.26 1.26 1.31 1.37 1.50 1.59 1.66 1.72 1.80 1.89 1.95 2.09
1.49 1.54 1.66 1.71 1.70 1.65 1.63 1.66 1.70 1.73 1.70 1.58 1.54 1.60 1.59 1.60 1.57 1.49 1.42 1.40 1.46 1.48 1.52 1.51 1.51 1.46 1.39 1.31 1.20 1.27 1.27 1.30 1.31 1.33 1.37 1.47 1.59 1.62 1.70 1.78 1.87 1.90 1.93
1.50 1.59 1.64 1.68 1.71 1.69 1.72 1.72 1.71 1.67 1.67 1.56 1.58 1.53 1.56 1.65 1.56 1.49 1.43 1.43 1.53 1.55 1.49 1.53 1.47 1.41 1.29 1.16 1.10 1.17 1.25 1.32 1.33 1.33 1.39 1.47 1.56 1.62 1.66 1.70 1.75 1.86 1.90
1.51 1.52 1.64 1.71 1.72 1.72 1.67 1.72 1.67 1.62 1.64 1.60 1.63 1.59 1.56 1.55 1.50 1.51 1.51 1.53 1.55 1.49 1.48 1.48 1.47 1.39 1.26 1.11 1.12 1.15 1.18 1.21 1.26 1.29 1.35 1.43 1.49 1.59 1.74 1.88 1.96 1.92 1.90
1.51 1.52 1.54 1.65 1.66 1.71 1.67 1.67 1.67 1.64 1.64 1.65 1.67 1.61 1.56 1.54 1.57 1.51 1.51 1.53 1.51 1.41 1.42 1.43 1.42 1.40 1.27 1.18 1.20 1.22 1.22 1.23 1.29 1.40 1.47 1.55 1.64 1.73 1.82 1.92 2.00 1.98 1.98
1.50 1.52 1.55 1.58 1.63 1.66 1.65 1.66 1.69 1.64 1.63 1.76 1.72 1.67 1.61 1.60 1.59 1.59 1.51 1.46 1.48 1.37 1.33 1.41 1.40 1.44 1.40 1.30 1.26 1.27 1.32 1.33 1.40 1.43 1.47 1.60 1.69 1.84 1.90 1.84 1.82 1.83 1.79
1.48 1.48 1.52 1.51 1.54 1.59 1.50 1.43 1.49 1.52 1.63 1.66 1.77 1.79 1.67 1.60 1.57 1.52 1.51 1.52 1.45 1.36 1.34 1.40 1.41 1.31 1.34 1.42 1.29 1.29 1.36 1.48 1.48 1.51 1.59 1.63 1.75 1.74 1.69 1.72 1.79 1.74 1.77
1.37 1.43 1.48 1.49 1.52 1.57 1.50 1.54 1.57 1.59 1.64 1.75 1.82 1.77 1.66 1.61 1.59 1.55 1.53 1.48 1.42 1.34 1.37 1.43 1.44 1.29 1.34 1.46 1.29 1.34 1.15 1.32 1.48 1.50 1.62 1.68 1.65 1.65 1.61 1.64 1.82 1.77 1.79
1.35 1.37 1.46 1.50 1.50 1.53 1.60 1.60 1.64 1.68 1.69 1.65 1.69 1.58 1.57 1.53 1.55 1.60 1.60 1.50 1.43 1.39 1.33 1.47 1.47 1.41 1.27 1.41 1.52 1.36 1.21 1.15 1.28 1.45 1.47 1.51 1.56 1.56 1.58 1.58 1.67 1.81 1.75
1.38 1.43 1.47 1.52 1.51 1.56 1.63 1.58 1.51 1.46 1.46 1.54 1.59 1.54 1.56 1.58 1.51 1.67 1.69 1.62 1.47 1.41 1.44 1.58 1.54 1.49 1.46 1.34 1.53 1.55 1.51 1.45 1.22 1.17 1.39 1.41 1.49 1.45 1.49 1.41 1.54 1.63 1.69
1.47 1.45 1.47 1.50 1.50 1.52 1.58 1.55 1.51 1.44 1.53 1.60 1.60 1.59 1.60 1.63 1.60 1.56 1.70 1.78 1.64 1.46 1.45 1.64 1.49 1.56 1.59 1.57 1.47 1.40 1.43 1.43 1.42 1.25 1.08 1.23 1.31 1.32 1.40 1.30 1.43 1.46 1.56
1.58 1.54 1.48 1.49 1.47 1.50 1.55 1.54 1.48 1.48 1.49 1.49 1.54 1.63 1.58 1.61 1.57 1.55 1.67 1.78 1.75 1.62 1.48 1.57 1.71 1.74 1.66 1.68 1.58 1.55 1.50 1.38 1.29 1.28 1.12 1.11 1.08 1.21 1.31 1.37 1.47 1.50 1.54

GFSSE_prec_pwat_141.txt.gz
Precipitable_Water
1.79 2.07 2.11 2.14 2.06 2.01 2.01 2.10 2.13 2.08 2.11 2.17 2.17 2.18 2.24 2.26 2.25 2.14 2.01 1.97 2.01 2.02 1.99 1.88 1.89 1.79 1.83 1.79 1.66 1.62 1.59 1.62 1.66 1.79 1.80 1.79 1.77 1.73 1.75 1.76 1.81 1.83 1.79
1.85 2.08 2.20 2.15 2.09 2.06 2.01 2.08 2.15 2.10 2.13 2.17 2.20 2.23 2.26 2.28 2.15 2.06 2.02 1.96 1.98 1.90 1.72 1.84 1.93 1.88 1.78 1.69 1.67 1.67 1.68 1.70 1.79 1.79 1.72 1.71 1.66 1.60 1.64 1.66 1.65 1.72 1.68
1.81 2.07 2.19 2.19 2.10 2.10 2.03 2.07 2.15 2.18 2.19 2.13 2.21 2.28 2.24 2.05 1.99 1.98 1.97 2.00 2.02 1.71 1.89 2.09 1.93 1.87 1.71 1.66 1.64 1.58 1.64 1.67 1.68 1.55 1.47 1.52 1.56 1.54 1.55 1.59 1.59 1.61 1.61
1.88 2.06 2.18 2.20 2.17 2.10 2.09 2.07 2.14 2.18 2.14 2.21 2.11 1.93 1.94 2.01 1.94 1.91 1.95 1.89 1.82 1.95 2.14 2.04 1.83 1.75 1.76 1.72 1.53 1.43 1.41 1.43 1.40 1.33 1.30 1.39 1.46 1.50 1.51 1.50 1.52 1.51 1.48
1.90 2.04 2.18 2.24 2.22 2.10 2.11 2.06 2.10 2.13 2.16 2.07 2.00 2.04 2.02 1.91 1.88 1.92 1.98 2.00 2.03 2.13 2.03 1.89 1.87 1.85 1.83 1.70 1.50 1.42 1.36 1.24 1.16 1.17 1.17 1.19 1.21 1.23 1.27 1.31 1.35 1.37 1.40
1.86 1.97 2.10 2.12 2.17 2.20 2.16 2.17 2.11 2.13 2.13 2.07 2.06 2.07 1.94 2.02 2.12 2.22 2.23 2.13 2.11 2.06 1.84 1.85 1.91 1.90 1.79 1.51 1.43 1.42 1.38 1.33 1.25 1.28 1.32 1.39 1.45 1.43 1.36 1.26 1.35 1.42 1.35
1.78 1.94 2.04 2.10 2.08 2.09 2.11 2.06 2.04 2.04 2.08 2.07 2.06 2.03 2.12 2.22 2.22 2.24 2.27 2.17 2.00 1.78 1.80 1.80 1.80 1.75 1.57 1.49 1.47 1.48 1.41 1.34 1.33 1.38 1.42 1.47 1.47 1.45 1.49 1.41 1.42 1.49 1.47
1.80 1.91 1.95 1.98 2.04 2.04 2.05 2.03 2.05 2.04 2.11 2.11 2.12 2.11 2.13 2.17 2.24 2.18 2.06 1.85 1.69 1.69 1.73 1.68 1.74 1.56 1.52 1.45 1.47 1.52 1.54 1.46 1.42 1.34 1.38 1.47 1.47 1.48 1.55 1.54 1.55 1.65 1.72
1.86 1.92 1.95 1.96 2.03 2.06 2.04 1.97 2.07 2.09 2.16 2.11 2.10 2.07 2.08 2.00 1.91 1.85 1.61 1.51 1.56 1.57 1.51 1.55 1.54 1.45 1.42 1.49 1.56 1.62 1.58 1.54 1.49 1.39 1.34 1.44 1.50 1.51 1.54 1.57 1.63 1.69 1.72
1.78 1.84 1.90 1.96 1.97 1.97 1.99 1.94 1.99 2.11 2.20 2.15 2.25 2.18 2.08 1.89 1.81 1.49 1.38 1.39 1.37 1.34 1.38 1.43 1.44 1.44 1.49 1.52 1.55 1.56 1.53 1.52 1.51 1.47 1.44 1.55 1.66 1.68 1.64 1.62 1.68 1.72 1.78
1.53 1.68 1.85 1.88 1.90 1.98 1.95 2.05 2.11 2.23 2.27 2.19 2.16 2.08 1.84 1.71 1.55 1.48 1.43 1.35 1.28 1.31 1.39 1.43 1.49 1.48 1.48 1.47 1.49 1.51 1.45 1.55 1.53 1.52 1.51 1.50 1.60 1.62 1.66 1.73 1.82 1.87 1.85
1.46 1.56 1.69 1.80 1.89 1.97 2.00 1.98 2.02 2.10 2.17 2.04 2.04 1.98 1.76 1.61 1.50 1.42 1.33 1.30 1.31 1.35 1.37 1.43 1.48 1.48 1.49 1.46 1.45 1.44 1.44 1.50 1.48 1.48 1.51 1.46 1.55 1.65 1.73 1.82 1.88 1.96 1.82
1.42 1.57 1.68 1.77 1.84 1.90 1.85 1.81 1.83 1.89 1.87 1.85 1.85 1.87 1.70 1.57 1.52 1.46 1.47 1.47 1.53 1.46 1.42 1.44 1.44 1.48 1.48 1.48 1.43 1.42 1.48 1.51 1.45 1.47 1.53 1.47 1.56 1.68 1.76 1.83 1.94 1.99 1.99
1.38 1.50 1.62 1.76 1.73 1.68 1.73 1.72 1.67 1.70 1.68 1.66 1.75 1.81 1.64 1.60 1.57 1.54 1.47 1.48 1.51 1.46 1.44 1.44 1.52 1.57 1.56 1.51 1.39 1.40 1.41 1.44 1.40 1.43 1.49 1.50 1.59 1.69 1.76 1.85 1.90 1.98 1.79
1.40 1.51 1.58 1.68 1.67 1.60 1.56 1.57 1.55 1.54 1.60 1.62 1.67 1.70 1.65 1.64 1.56 1.51 1.46 1.50 1.51 1.45 1.47 1.50 1.55 1.55 1.49 1.37 1.30 1.30 1.32 1.36 1.35 1.38 1.43 1.47 1.58 1.67 1.77 1.85 1.89 1.87 1.91
1.43 1.52 1.59 1.66 1.67 1.62 1.51 1.51 1.51 1.59 1.60 1.58 1.64 1.61 1.55 1.64 1.60 1.52 1.42 1.45 1.48 1.51 1.53 1.53 1.56 1.53 1.45 1.33 1.22 1.25 1.28 1.34 1.34 1.34 1.40 1.48 1.58 1.72 1.80 1.86 1.92 1.97 1.98
1.47 1.56 1.61 1.67 1.69 1.61 1.60 1.56 1.65 1.64 1.59 1.49 1.56 1.58 1.55 1.65 1.57 1.49 1.41 1.48 1.50 1.51 1.53 1.58 1.55 1.50 1.37 1.22 1.17 1.21 1.29 1.36 1.38 1.39 1.44 1.50 1.58 1.72 1.83 1.95 2.05 2.03 1.98
1.51 1.54 1.66 1.68 1.66 1.64 1.71 1.70 1.67 1.63 1.59 1.56 1.57 1.53 1.61 1.62 1.55 1.46 1.41 1.45 1.53 1.51 1.52 1.50 1.46 1.41 1.26 1.13 1.12 1.17 1.23 1.29 1.35 1.34 1.41 1.53 1.66 1.74 1.88 1.95 2.01 2.02 2.04
1.50 1.51 1.56 1.68 1.69 1.73 1.75 1.74 1.65 1.59 1.56 1.58 1.62 1.57 1.57 1.60 1.53 1.51 1.51 1.55 1.52 1.51 1.48 1.48 1.44 1.41 1.31 1.22 1.17 1.19 1.25 1.31 1.35 1.44 1.54 1.64 1.74 1.85 1.92 1.94 1.89 1.93 1.93
1.52 1.53 1.53 1.62 1.68 1.71 1.70 1.70 1.65 1.60 1.62 1.63 1.62 1.56 1.58 1.55 1.49 1.48 1.48 1.49 1.52 1.47 1.40 1.44 1.43 1.47 1.45 1.35 1.32 1.31 1.37 1.44 1.46 1.49 1.61 1.73 1.79 1.92 1.87 1.83 1.88 1.83 1.78
1.49 1.47 1.47 1.50 1.62 1.67 1.62 1.57 1.57 1.49 1.58 1.70 1.72 1.61 1.59 1.57 1.56 1.56 1.44 1.40 1.42 1.42 1.38 1.41 1.46 1.41 1.42 1.52 1.40 1.35 1.37 1.44 1.47 1.58 1.65 1.70 1.79 1.75 1.71 1.68 1.74 1.79 1.77
1.42 1.46 1.47 1.47 1.54 1.58 1.62 1.59 1.57 1.62 1.66 1.70 1.76 1.73 1.69 1.60 1.54 1.51 1.44 1.43 1.43 1.38 1.36 1.41 1.43 1.40 1.40 1.50 1.31 1.30 1.17 1.31 1.51 1.58 1.62 1.66 1.66 1.69 1.61 1.62 1.65 1.76 1.84
1.34 1.41 1.42 1.47 1.50 1.54 1.60 1.63 1.58 1.65 1.67 1.61 1.70 1.73 1.70 1.59 1.53 1.51 1.50 1.51 1.46 1.41 1.34 1.42 1.49 1.42 1.35 1.47 1.51 1.39 1.18 1.16 1.33 1.45 1.52 1.54 1.57 1.60 1.57 1.55 1.54 1.64 1.72
1.31 1.42 1.47 1.50 1.52 1.55 1.60 1.57 1.54 1.48 1.49 1.62 1.67 1.71 1.58 1.56 1.52 1.49 1.53 1.55 1.52 1.47 1.36 1.42 1.57 1.57 1.50 1.41 1.52 1.56 1.56 1.45 1.20 1.16 1.40 1.43 1.55 1.49 1.46 1.46 1.42 1.53 1.62
1.42 1.39 1.43 1.46 1.51 1.56 1.56 1.59 1.53 1.53 1.58 1.68 1.66 1.63 1.55 1.56 1.60 1.51 1.64 1.62 1.60 1.51 1.47 1.54 1.55 1.55 1.55 1.52 1.48 1.50 1.45 1.46 1.50 1.27 1.11 1.21 1.38 1.45 1.45 1.43 1.47 1.58 1.59
1.45 1.49 1.44 1.44 1.45 1.54 1.55 1.56 1.54 1.54 1.57 1.58 1.59 1.55 1.57 1.60 1.63 1.62 1.58 1.65 1.72 1.70 1.47 1.50 1.63 1.72 1.66 1.64 1.61 1.57 1.54 1.48 1.46 1.34 1.22 1.22 1.13 1.25 1.41 1.47 1.51 1.56 1.69

GFSSE_prec_pwat_144.txt.gz
Precipitable_Water
1.87 2.04 2.08 2.07 2.02 2.04 2.12 2.15 2.12 2.08 2.13 2.20 2.28 2.26 2.28 2.26 2.19 2.10 1.98 2.01 2.02 2.03 1.86 1.91 1.82 1.84 1.80 1.68 1.61 1.63 1.65 1.63 1.73 1.79 1.83 1.84 1.84 1.87 1.85 1.92 2.05 1.85 1.83
1.92 2.15 2.05 2.08 2.08 2.04 2.05 2.12 2.11 2.07 2.13 2.19 2.24 2.24 2.31 2.32 2.18 2.08 1.96 1.96 1.98 1.78 1.81 1.82 1.82 1.76 1.66 1.64 1.69 1.65 1.68 1.75 1.79 1.75 1.76 1.70 1.73 1.71 1.73 1.75 1.82 1.70 1.70
1.92 2.15 2.10 2.09 2.09 2.03 2.05 2.10 2.12 2.14 2.16 2.22 2.24 2.28 2.35 2.10 1.96 1.94 2.05 2.09 1.78 1.82 1.98 1.96 1.81 1.69 1.62 1.62 1.60 1.67 1.70 1.68 1.55 1.50 1.60 1.59 1.61 1.61 1.64 1.62 1.62 1.67 1.67
1.95 2.11 2.17 2.08 2.07 2.04 2.04 2.08 2.13 2.16 2.18 2.21 2.21 2.27 2.08 2.03 1.96 1.98 1.97 1.95 1.88 2.10 2.08 1.81 1.74 1.73 1.62 1.51 1.44 1.44 1.43 1.39 1.30 1.39 1.48 1.48 1.44 1.45 1.42 1.46 1.48 1.48 1.51
1.93 2.07 2.15 2.15 2.11 2.08 2.07 2.11 2.11 2.16 2.19 2.17 2.06 2.04 2.05 1.96 1.94 1.91 1.97 1.97 2.09 2.11 1.89 1.88 1.81 1.78 1.61 1.47 1.38 1.33 1.21 1.15 1.19 1.26 1.23 1.29 1.25 1.20 1.25 1.32 1.35 1.38 1.49
1.90 2.09 2.19 2.22 2.13 2.11 2.13 2.10 2.14 2.17 2.14 2.10 2.09 2.07 1.99 1.96 1.98 2.10 2.10 2.05 2.16 1.88 1.84 1.85 1.87 1.65 1.46 1.40 1.38 1.34 1.30 1.25 1.40 1.38 1.36 1.36 1.44 1.40 1.31 1.34 1.46 1.32 1.27
1.88 2.02 2.17 2.26 2.20 2.21 2.21 2.11 2.09 2.10 2.06 2.10 2.08 2.06 2.05 2.16 2.21 2.28 2.15 2.15 1.91 1.80 1.77 1.80 1.77 1.53 1.42 1.42 1.39 1.34 1.31 1.29 1.42 1.41 1.43 1.47 1.37 1.46 1.44 1.41 1.47 1.48 1.49
1.87 1.99 2.09 2.15 2.17 2.14 2.11 2.04 2.06 2.10 2.06 2.12 2.09 2.21 2.24 2.24 2.26 2.29 2.17 1.98 1.70 1.73 1.70 1.74 1.60 1.48 1.42 1.44 1.43 1.45 1.42 1.43 1.40 1.39 1.44 1.51 1.42 1.51 1.59 1.58 1.62 1.76 1.80
1.90 1.96 2.01 2.07 2.08 1.98 2.04 2.04 2.08 2.11 2.05 2.13 2.18 2.19 2.23 2.25 2.12 2.02 1.76 1.64 1.65 1.61 1.61 1.62 1.46 1.41 1.44 1.51 1.56 1.52 1.50 1.49 1.53 1.41 1.46 1.60 1.48 1.55 1.59 1.62 1.70 1.76 1.82
1.88 1.96 1.96 2.08 2.02 2.00 2.01 2.03 2.07 2.09 2.07 2.17 2.16 2.18 1.95 1.91 1.76 1.43 1.42 1.53 1.49 1.45 1.47 1.41 1.39 1.43 1.51 1.52 1.52 1.49 1.53 1.56 1.58 1.57 1.54 1.64 1.58 1.68 1.69 1.69 1.75 1.79 1.85
1.82 1.88 1.94 1.90 1.87 1.91 2.01 2.01 2.15 2.11 2.16 2.20 2.21 2.11 2.11 1.83 1.51 1.57 1.46 1.38 1.35 1.39 1.42 1.42 1.41 1.44 1.45 1.43 1.45 1.45 1.55 1.59 1.60 1.61 1.59 1.46 1.59 1.65 1.69 1.76 1.84 1.78 1.85
1.60 1.77 1.85 1.88 1.91 1.90 2.06 2.15 2.12 2.11 2.12 2.18 2.19 1.92 1.79 1.60 1.61 1.45 1.31 1.30 1.35 1.39 1.42 1.42 1.41 1.40 1.50 1.53 1.51 1.46 1.52 1.57 1.60 1.60 1.59 1.41 1.52 1.63 1.73 1.83 1.88 1.85 1.91
1.49 1.59 1.69 1.85 1.92 1.94 2.01 2.11 2.12 2.08 2.07 2.14 2.10 1.91 1.72 1.54 1.49 1.42 1.35 1.47 1.46 1.48 1.48 1.49 1.47 1.50 1.49 1.51 1.47 1.51 1.53 1.61 1.57 1.54 1.55 1.44 1.53 1.65 1.77 1.85 1.89 1.86 1.93
1.48 1.62 1.72 1.83 1.91 1.93 1.96 1.91 1.98 1.98 1.99 1.93 2.00 1.85 1.67 1.63 1.55 1.49 1.45 1.51 1.52 1.52 1.49 1.54 1.54 1.52 1.50 1.46 1.48 1.48 1.49 1.56 1.49 1.51 1.55 1.47 1.57 1.68 1.78 1.81 1.86 1.94 1.99
1.41 1.55 1.68 1.77 1.80 1.85 1.84 1.80 1.85 1.80 1.78 1.86 1.92 1.86 1.78 1.68 1.56 1.55 1.51 1.55 1.50 1.50 1.53 1.56 1.56 1.54 1.45 1.37 1.37 1.36 1.40 1.43 1.45 1.47 1.53 1.45 1.54 1.66 1.76 1.89 1.93 1.96 2.00
1.46 1.55 1.65 1.72 1.73 1.72 1.70 1.74 1.66 1.75 1.75 1.77 1.82 1.80 1.83 1.71 1.63 1.51 1.48 1.54 1.54 1.59 1.59 1.60 1.61 1.60 1.47 1.40 1.27 1.32 1.37 1.41 1.44 1.43 1.48 1.54 1.51 1.65 1.77 1.90 2.00 2.03 2.02
1.47 1.57 1.62 1.69 1.75 1.65 1.60 1.58 1.67 1.71 1.68 1.66 1.70 1.66 1.73 1.72 1.63 1.53 1.47 1.52 1.53 1.58 1.60 1.64 1.64 1.56 1.43 1.27 1.24 1.28 1.37 1.45 1.50 1.49 1.52 1.58 1.67 1.72 1.85 1.93 1.96 2.00 2.00
1.48 1.53 1.63 1.67 1.67 1.63 1.64 1.62 1.71 1.70 1.65 1.59 1.62 1.59 1.60 1.66 1.63 1.52 1.49 1.54 1.59 1.55 1.57 1.56 1.55 1.48 1.32 1.20 1.20 1.26 1.31 1.36 1.40 1.40 1.53 1.67 1.74 1.85 1.97 1.96 1.92 1.89 1.90
1.53 1.56 1.61 1.65 1.65 1.64 1.75 1.73 1.73 1.66 1.59 1.61 1.59 1.60 1.57 1.59 1.57 1.53 1.52 1.61 1.59 1.53 1.53 1.57 1.52 1.49 1.38 1.26 1.22 1.26 1.31 1.38 1.47 1.54 1.56 1.69 1.79 1.88 1.98 1.98 1.89 1.84 1.81
1.51 1.55 1.61 1.66 1.71 1.74 1.78 1.76 1.66 1.60 1.56 1.57 1.61 1.62 1.55 1.59 1.58 1.55 1.56 1.62 1.56 1.52 1.49 1.54 1.48 1.48 1.50 1.45 1.43 1.38 1.42 1.49 1.54 1.57 1.64 1.74 1.84 1.93 1.85 1.81 1.76 1.77 1.76
1.49 1.51 1.53 1.61 1.67 1.72 1.66 1.61 1.55 1.44 1.51 1.53 1.61 1.66 1.60 1.57 1.51 1.46 1.46 1.50 1.49 1.44 1.45 1.46 1.51 1.42 1.45 1.56 1.44 1.44 1.43 1.50 1.54 1.63 1.67 1.71 1.76 1.76 1.74 1.64 1.68 1.70 1.77
1.46 1.49 1.51 1.54 1.63 1.66 1.65 1.66 1.65 1.62 1.61 1.66 1.77 1.73 1.67 1.58 1.58 1.53 1.50 1.45 1.43 1.37 1.41 1.42 1.46 1.44 1.44 1.52 1.38 1.35 1.27 1.41 1.66 1.63 1.58 1.64 1.63 1.67 1.62 1.60 1.64 1.63 1.74
1.38 1.47 1.48 1.51 1.58 1.62 1.67 1.70 1.67 1.72 1.73 1.68 1.73 1.78 1.77 1.71 1.64 1.57 1.53 1.45 1.44 1.37 1.33 1.41 1.48 1.45 1.37 1.51 1.54 1.38 1.21 1.25 1.38 1.59 1.56 1.58 1.57 1.59 1.60 1.55 1.52 1.57 1.68
1.33 1.47 1.52 1.54 1.57 1.63 1.63 1.62 1.53 1.47 1.50 1.59 1.67 1.80 1.80 1.71 1.59 1.57 1.58 1.49 1.50 1.46 1.38 1.39 1.50 1.52 1.53 1.41 1.56 1.55 1.54 1.47 1.23 1.17 1.48 1.58 1.59 1.52 1.54 1.51 1.55 1.60 1.71
1.38 1.38 1.47 1.54 1.57 1.62 1.63 1.61 1.61 1.54 1.61 1.71 1.75 1.77 1.77 1.66 1.60 1.57 1.54 1.52 1.57 1.52 1.47 1.42 1.56 1.50 1.58 1.52 1.48 1.45 1.49 1.49 1.52 1.38 1.23 1.35 1.52 1.47 1.50 1.57 1.59 1.62 1.69
1.45 1.43 1.43 1.47 1.52 1.61 1.63 1.63 1.59 1.54 1.58 1.63 1.66 1.68 1.73 1.64 1.58 1.64 1.61 1.57 1.64 1.59 1.53 1.49 1.58 1.62 1.68 1.62 1.56 1.51 1.47 1.47 1.48 1.49 1.31 1.25 1.19 1.32 1.44 1.53 1.60 1.64 1.71

GFSSE_prec_pwat_147.txt.gz
Precipitable_Water
1.89 1.93 1.97 2.03 2.12 2.21 2.15 2.13 2.13 2.12 2.18 2.24 2.25 2.14 2.10 2.14 2.06 2.00 1.97 2.01 2.09 1.99 1.97 1.85 1.80 1.84 1.73 1.64 1.69 1.62 1.64 1.72 1.80 1.83 1.81 1.81 1.82 1.82 1.87 2.00 2.03 1.80 1.79
1.96 2.03 1.99 1.99 2.02 2.11 2.11 2.12 2.11 2.12 2.16 2.22 2.25 2.26 2.30 2.28 2.10 1.97 1.92 2.00 1.94 1.78 1.82 1.81 1.79 1.70 1.69 1.73 1.63 1.71 1.76 1.77 1.72 1.77 1.75 1.66 1.69 1.78 1.90 1.99 1.81 1.74 1.75
1.95 2.06 2.02 2.04 2.02 2.06 2.09 2.08 2.09 2.07 2.14 2.21 2.24 2.31 2.29 2.17 1.98 1.95 2.00 1.86 1.84 1.94 2.04 1.85 1.71 1.66 1.62 1.64 1.67 1.70 1.60 1.53 1.63 1.68 1.75 1.59 1.63 1.67 1.66 1.63 1.65 1.70 1.67
2.01 2.12 2.05 2.00 2.01 2.06 2.05 2.07 2.09 2.08 2.14 2.20 2.24 2.24 2.18 1.96 1.95 2.04 2.02 1.81 2.04 2.05 1.81 1.79 1.75 1.66 1.58 1.47 1.46 1.45 1.30 1.28 1.44 1.63 1.78 1.48 1.46 1.49 1.50 1.53 1.55 1.60 1.59
1.99 2.17 2.08 2.01 2.09 2.05 2.04 2.05 2.09 2.12 2.19 2.17 2.08 2.19 2.03 2.00 2.01 1.97 1.90 2.01 2.11 1.95 1.78 1.80 1.75 1.57 1.42 1.33 1.28 1.15 1.11 1.21 1.27 1.34 1.34 1.38 1.24 1.24 1.32 1.42 1.42 1.51 1.60
1.98 2.14 2.08 2.08 2.09 2.08 2.08 2.02 2.08 2.09 2.11 2.13 2.17 2.08 1.96 1.98 2.04 2.04 2.02 2.19 1.98 1.85 1.83 1.84 1.65 1.43 1.36 1.37 1.34 1.27 1.28 1.42 1.57 1.42 1.43 1.50 1.30 1.21 1.28 1.39 1.30 1.27 1.30
1.91 2.07 2.14 2.13 2.12 2.13 2.11 2.10 2.10 2.14 2.12 2.12 2.06 2.03 2.01 2.10 2.20 2.15 2.15 2.02 1.81 1.79 1.84 1.74 1.50 1.40 1.39 1.38 1.34 1.27 1.32 1.43 1.46 1.49 1.54 1.47 1.49 1.48 1.47 1.53 1.58 1.58 1.57
1.93 2.05 2.21 2.19 2.14 2.09 2.11 2.12 2.14 2.13 2.12 2.11 2.13 2.14 2.17 2.29 2.34 2.21 2.07 1.86 1.72 1.74 1.75 1.50 1.42 1.40 1.43 1.39 1.39 1.38 1.39 1.52 1.49 1.52 1.66 1.51 1.47 1.62 1.66 1.64 1.74 1.79 1.83
1.92 2.01 2.09 2.20 2.20 2.22 2.19 2.12 2.16 2.14 2.14 2.12 2.21 2.27 2.31 2.37 2.31 2.12 1.85 1.63 1.67 1.64 1.63 1.45 1.40 1.44 1.47 1.47 1.45 1.44 1.43 1.55 1.61 1.56 1.63 1.59 1.51 1.61 1.64 1.70 1.76 1.76 1.80
1.87 1.96 2.02 2.03 2.08 2.07 2.08 2.09 2.15 2.14 2.15 2.13 2.19 2.17 2.16 2.01 1.80 1.65 1.58 1.61 1.53 1.55 1.47 1.37 1.42 1.48 1.48 1.45 1.43 1.43 1.57 1.71 1.67 1.68 1.67 1.62 1.58 1.69 1.71 1.72 1.74 1.81 1.80
1.95 2.03 1.98 1.89 1.97 2.09 2.09 2.09 2.11 2.13 2.14 2.16 2.11 2.18 2.00 1.71 1.58 1.62 1.52 1.40 1.39 1.39 1.35 1.36 1.43 1.43 1.43 1.43 1.34 1.44 1.62 1.88 1.71 1.64 1.67 1.47 1.61 1.70 1.75 1.78 1.81 1.80 1.71
1.78 1.80 1.82 1.82 1.91 2.02 2.08 2.11 2.10 2.10 2.15 2.09 2.02 2.17 2.03 1.69 1.61 1.42 1.30 1.35 1.40 1.41 1.40 1.37 1.39 1.42 1.57 1.62 1.54 1.53 1.73 1.61 1.71 1.61 1.58 1.45 1.54 1.64 1.76 1.80 1.82 1.86 1.80
1.63 1.72 1.87 1.90 1.91 2.01 2.09 2.08 2.03 2.01 2.06 2.07 1.86 1.88 1.63 1.53 1.37 1.22 1.21 1.38 1.36 1.51 1.44 1.43 1.49 1.63 1.51 1.59 1.45 1.59 1.57 1.72 1.59 1.61 1.54 1.44 1.53 1.63 1.76 1.86 1.85 1.88 1.89
1.47 1.56 1.70 1.81 1.84 1.96 2.00 1.92 1.92 1.92 1.96 1.96 1.99 1.82 1.61 1.61 1.55 1.48 1.61 1.57 1.50 1.58 1.42 1.63 1.59 1.56 1.53 1.47 1.57 1.59 1.57 1.65 1.56 1.59 1.54 1.42 1.51 1.61 1.75 1.87 1.92 1.95 1.95
1.53 1.60 1.80 1.96 1.91 1.82 1.83 1.97 1.93 1.97 2.00 2.19 1.96 1.78 1.90 1.66 1.51 1.52 1.55 1.75 1.67 1.42 1.50 1.54 1.53 1.61 1.40 1.46 1.46 1.46 1.50 1.50 1.51 1.53 1.59 1.39 1.48 1.59 1.72 1.87 1.96 2.01 2.02
1.55 1.61 1.79 1.79 1.92 1.92 1.90 1.79 2.09 1.76 2.01 1.81 2.06 1.80 1.90 1.73 1.69 1.55 1.59 1.52 1.52 1.71 1.58 1.65 1.57 1.63 1.50 1.46 1.29 1.40 1.47 1.44 1.45 1.44 1.55 1.53 1.53 1.59 1.73 1.87 1.96 1.98 1.98
1.53 1.64 1.70 1.81 1.70 1.74 1.88 1.70 1.75 1.97 1.76 1.87 1.89 1.82 1.76 1.82 1.66 1.57 1.52 1.65 1.59 1.47 1.48 1.59 1.67 1.57 1.53 1.34 1.26 1.29 1.47 1.49 1.53 1.46 1.52 1.59 1.68 1.75 1.90 1.92 1.91 1.87 1.88
1.53 1.59 1.70 1.76 1.77 1.67 1.65 1.70 1.80 1.73 1.75 1.78 1.83 1.73 1.78 1.92 1.70 1.57 1.57 1.88 1.41 1.62 1.54 1.49 1.50 1.54 1.32 1.26 1.28 1.36 1.40 1.41 1.38 1.35 1.50 1.66 1.78 1.89 1.93 1.95 1.85 1.84 1.83
1.54 1.59 1.67 1.75 1.72 1.69 1.68 1.66 1.77 1.81 1.76 1.60 1.71 1.67 1.68 1.74 1.67 1.67 1.57 1.59 1.60 1.57 1.57 1.94 1.53 1.51 1.36 1.29 1.24 1.25 1.33 1.38 1.46 1.63 1.55 1.75 1.87 1.93 1.97 1.87 1.82 1.77 1.80
1.57 1.62 1.66 1.70 1.75 1.73 1.76 1.76 1.74 1.66 1.66 1.72 1.67 1.66 1.65 1.67 1.58 1.49 1.58 1.86 1.62 1.55 1.51 1.65 1.53 1.47 1.52 1.46 1.68 1.54 1.42 1.48 1.54 1.55 1.69 1.79 1.89 1.85 1.84 1.72 1.75 1.72 1.74
1.52 1.53 1.60 1.66 1.77 1.76 1.77 1.70 1.62 1.55 1.54 1.60 1.69 1.80 1.60 1.69 1.56 1.49 1.63 1.56 1.41 1.54 1.62 1.46 1.54 1.47 1.56 1.52 1.35 1.63 1.52 1.42 1.47 1.59 1.71 1.73 1.73 1.73 1.73 1.68 1.68 1.67 1.76
1.47 1.51 1.54 1.65 1.72 1.76 1.80 1.75 1.67 1.58 1.60 1.61 1.68 1.70 1.62 1.61 1.58 1.50 1.43 1.50 1.51 1.53 1.44 1.47 1.41 1.52 1.43 1.48 1.35 1.29 1.42 1.73 1.80 1.84 1.57 1.57 1.63 1.68 1.74 1.71 1.60 1.61 1.78
1.45 1.50 1.52 1.56 1.66 1.69 1.72 1.73 1.75 1.71 1.74 1.60 1.86 1.75 1.63 1.64 1.58 1.53 1.63 1.51 1.65 1.42 1.39 1.46 1.40 1.43 1.43 1.61 1.43 1.32 1.17 1.45 1.43 1.72 1.69 1.55 1.49 1.54 1.55 1.45 1.84 1.60 1.79
1.39 1.53 1.58 1.57 1.59 1.66 1.68 1.68 1.64 1.59 1.55 1.65 1.70 1.78 1.82 1.76 1.72 1.67 1.60 1.56 1.48 1.56 1.46 1.45 1.44 1.50 1.48 1.39 1.60 1.57 1.52 1.42 1.21 1.14 1.50 1.88 1.60 1.59 1.60 1.46 1.72 1.77 1.75
1.37 1.45 1.53 1.58 1.57 1.61 1.62 1.65 1.65 1.57 1.58 1.70 1.71 1.76 1.81 1.92 1.65 1.60 1.60 1.60 1.51 1.57 1.58 1.52 1.53 1.51 1.60 1.47 1.53 1.48 1.53 1.48 1.53 1.37 1.23 1.45 1.45 1.43 1.41 1.52 1.57 1.75 1.86
1.39 1.42 1.46 1.49 1.50 1.59 1.61 1.59 1.61 1.62 1.55 1.64 1.71 1.83 1.74 1.70 1.63 1.59 1.62 1.50 1.55 1.65 1.62 1.55 1.53 1.49 1.51 1.67 1.63 1.57 1.44 1.41 1.45 1.46 1.43 1.22 1.20 1.40 1.46 1.47 1.50 1.62 1.84